SCP
0 0 0 0 0 0 0 0 0 0 0 0 0 0 0 0 0 0 0 0 0 0 0 0 0 0 0 0 0 0 0 0 0 0 0 0 0 0 0 0 0 0 0
0 0 0 0 0 0 0 0 0 -0 0 0 0 0 0 0 0 0 0 0 0 0 0 0 0 0 0 0 0 0 0 0 0 0 0 0 0 0 0 0 0 0 0
0 0 0 0 0 0 0 0 -0 -0 0 0 0 0 0 0 0 0 0 0 0 0 0 0 0 0 0 0 0 0 0 0 0 0 0 0 0 0 0 0 0 0 0
0 0 0 0 0 0 0 -0 0 0 0 0 0 0 0 0 0 0 0 0 0 0 0 0 0 0 0 0 0 0 0 0 0 0 0 0 0 0 0 0 0 0 0
0 0 0 0 0 0 0 0 0 0 0 0 0 0 0 0 0 0 0 0 0 0 0 0 0 0 0 0 0 0 0 0 0 0 0 0 0 0 0 0 0 0 0
0 0 0 0 0 0 0 -0 -0 0 0 0 0 0 0 0 0 0 0 0 0 0 0 0 0 0 0 0 0 0 0 0 0 0 0 0 0 0 0 0 0 0 0
0 0 0 0 0 -0 -0 -0 -0 -0 -0 0 0 0 -0 -0 -0 -0 0 0 0 0 0 0 0 0 0 0 0 0 0 0 0 0 0 0 0 0 0 0 0 0 0
0 0 0 0 0 0 0 0 0 0 -0 0 0 0 -0 0 0 0 0 0 0 0 0 0 0 0 0 0 0 0 0 0 0 0 0 0 0 0 0 0 0 0 0
0 0 0 0 0 0 0 0 0 0 -0 -0 0 0 0 0 0 0 0 0 0 0 0 0 0 0 0 0 0 0 0 0 0 0 0 0 0 0 0 0 0 0 0
0 0 0 0 0 0 0 0 0 0 0 0 -0 -0 -0 -0 -0 -0 0 0 0 0 0 0 0 0 0 0 0 0 0 0 0 0 0 0 0 0 0 0 0 0 0
0 0 0 0 0 0 0 0 0 0 0 0 -0 -0 -0 -0 -0 -0 -0 0 0 0 0 0 0 0 0 0 0 0 0 0 0 0 0 0 0 0 0 0 0 0 0
0 0 0 0 0 0 0 0 0 0 -0 0 -0 -0 -0 -0 -0 -0 -0 -0 -0 -0 0 0 0 -0 -0 -0 0 -0 0 0 0 0 0 0 0 0 0 0 0 0 0
0 0 0 0 0 0 0 0 0 0 0 0 0 0 0 0 0 0 0 0 0 -0 -0 -0 -0 -0 -0 -0 -0 -0 0 0 0 0 0 0 0 0 0 0 0 0 0
0 0 0 0 0 0 0 0 0 0 0 0 0 0 0 0 0 0 0 0 0 -0 0 0 -0 -0 -0 -0 -0 -0 -0 0 0 0 0 0 0 0 0 0 0 0 0
0 0 0 0 0 0 0 0 0 0 0 0 0 0 0 0 0 0 0 0 0 0 0 -0 -0 -0 -0 0 0 0 0 0 0 0 0 0 0 0 0 0 0 0 0
0 0 0 0 0 0 0 0 0 0 0 0 0 0 0 0 0 0 0 -0 -0 0 0 0 0 0 0 0 0 0 0 0 0 0 0 0 0 0 0 0 0 0 0
0 0 0 0 0 0 0 0 0 0 -0 -0 -0 0 0 0 0 -0 0 0 0 0 0 0 0 0 0 0 0 0 0 0 0 0 0 0 0 0 0 0 0 0 0
-0 0 0 0 0 0 0 0 0 0 0 0 -0 -0 -0 0 0 0 0 0 0 0 0 0 0 0 0 0 0 0 0 0 0 0 0 0 0 0 0 0 0 0 0
0 0 0 0 0 0 0 0 0 0 0 0 0 0 0 0 0 0 0 0 0 0 0 0 0 0 0 0 0 0 0 0 0 0 0 0 0 0 0 0 0 0 0
-0 0 0 0 0 0 0 0 0 0 0 0 0 0 0 0 0 0 0 0 0 0 0 0 0 0 0 0 0 0 0 0 0 0 0 0 0 0 0 0 0 0 0
0 0 0 0 0 0 0 0 0 0 0 0 0 0 0 0 0 0 0 0 0 0 0 0 0 0 0 0 0 0 0 0 0 0 0 0 0 0 0 0 0 0 0
0 0 0 0 0 0 0 0 0 0 0 0 0 0 0 0 0 0 0 0 0 0 0 0 0 0 0 0 0 0 0 0 0 0 0 0 0 0 0 0 0 0 0
0 0 0 0 0 0 0 0 0 0 0 0 0 0 0 0 0 0 0 0 0 0 0 0 0 0 0 0 0 0 0 0 0 0 0 0 0 0 0 0 0 0 0
0 0 0 0 0 0 0 0 0 0 0 0 0 0 0 0 0 0 0 0 0 0 0 0 0 0 0 0 0 0 0 0 0 0 0 0 0 0 0 0 0 0 0
0 0 0 0 0 0 0 0 0 0 0 0 0 0 0 0 0 0 0 0 0 0 0 0 0 0 0 0 0 0 0 0 0 0 0 0 0 0 0 0 0 0 0
0 0 0 0 0 0 0 0 0 0 0 0 0 0 0 0 0 0 0 0 0 0 0 0 0 0 0 0 0 0 0 0 0 0 0 0 0 0 0 0 0 0 0
Wind_Speed_500mb
54 50 43 37 34 32 36 36 39 39 38 41 33 16 19 44 53 50 42 43 49 46 50 55 52 47 40 55 72 71 73 72 65 58 54 57 56 53 47 51 53 54 52
51 47 40 32 30 31 30 32 33 35 33 31 36 19 21 21 35 38 36 37 37 48 49 58 62 55 50 54 73 65 64 68 70 64 58 56 56 52 52 47 47 48 43
47 44 37 29 26 28 25 24 23 23 22 15 14 21 20 20 25 26 24 28 28 30 42 48 57 60 61 50 51 61 67 87 74 79 70 67 64 57 54 51 47 44 38
44 38 35 30 25 25 22 16 14 11 12 13 18 15 15 12 6 16 18 16 20 25 28 43 49 56 61 50 46 55 60 71 75 75 81 71 68 66 58 55 50 41 39
42 37 33 27 23 23 19 13 11 8 10 16 15 16 14 9 8 15 12 12 15 21 21 27 42 45 45 53 58 58 62 68 75 86 88 76 76 73 68 61 57 52 47
39 35 33 28 21 17 16 15 10 9 10 13 13 12 10 10 8 5 9 13 16 16 19 20 29 44 45 51 53 58 62 75 85 87 99 76 75 75 74 69 68 66 56
37 33 30 28 24 19 15 14 14 14 14 12 12 11 9 7 10 11 12 9 10 9 8 15 16 20 27 41 55 53 68 70 76 85 86 83 79 82 81 74 72 67 52
37 35 31 28 24 20 18 17 18 18 19 21 22 23 20 21 18 10 6 9 17 22 15 8 2 1 11 21 34 40 50 60 64 75 78 74 78 78 75 66 65 54 36
38 38 34 29 25 21 22 23 25 28 32 37 36 36 33 28 21 27 36 47 54 55 48 40 36 35 30 20 21 32 40 41 39 32 32 40 39 51 45 58 48 38 36
33 36 33 31 29 28 26 26 27 31 35 36 42 43 40 40 43 53 59 61 64 64 62 63 56 47 42 41 42 44 60 57 45 45 50 50 51 50 46 36 34 33 35
22 25 27 30 30 29 27 27 30 32 36 42 45 46 47 44 41 40 46 56 59 60 59 52 48 41 40 39 39 35 51 44 40 41 45 43 49 42 40 38 32 26 27
13 16 17 19 21 23 24 26 28 30 34 37 39 42 40 42 39 36 35 37 42 46 48 44 42 39 39 39 41 46 46 40 38 37 37 37 33 30 28 28 27 23 19
7 9 10 12 13 13 13 16 17 18 19 26 30 34 34 33 34 33 33 32 33 37 37 37 34 31 27 31 37 39 34 32 27 25 29 30 26 23 20 21 19 15 16
4 7 8 10 11 12 12 15 17 21 21 24 27 30 30 32 35 36 35 34 34 33 34 35 32 29 26 28 28 27 26 25 22 22 23 24 22 22 19 15 15 15 14
6 9 11 15 14 12 11 15 16 18 18 19 24 22 20 25 27 28 29 30 32 35 30 30 28 26 27 27 25 25 25 23 19 20 18 18 16 14 12 11 10 9 10
8 9 12 14 15 16 15 15 15 18 17 19 22 21 23 23 22 22 23 24 26 31 24 27 28 29 29 28 25 24 23 22 20 19 17 16 14 12 9 8 6 6 6
13 13 10 9 10 14 15 17 19 20 20 19 19 19 20 21 20 21 24 23 24 27 23 26 24 23 22 21 22 22 20 22 22 20 19 18 18 17 14 14 13 11 11
16 13 13 13 10 8 7 9 11 12 14 15 15 16 15 14 14 15 15 16 17 17 18 19 19 19 19 18 18 16 15 17 15 14 13 13 13 11 11 11 12 10 10
27 24 21 16 12 9 8 5 3 4 5 8 10 11 11 13 14 15 14 12 13 14 15 14 14 13 13 12 12 11 11 11 11 12 12 13 14 13 11 11 9 8 6
31 28 24 22 21 21 19 14 11 9 7 7 7 7 6 5 5 4 4 3 3 3 4 4 4 3 2 2 3 3 3 3 3 3 3 4 5 5 5 4 4 4 3
31 28 26 25 23 21 21 19 18 15 15 15 15 16 15 15 13 12 9 7 6 5 4 4 4 4 3 2 1 2 4 6 6 6 5 4 4 3 3 3 4 5 7
37 34 32 28 28 28 26 26 25 23 24 21 20 21 19 17 16 15 12 11 9 8 8 7 6 6 6 6 7 7 8 7 7 7 6 6 6 7 8 8 7 7 8
44 41 39 37 35 34 34 31 28 29 28 27 25 22 21 21 20 18 16 14 13 13 12 11 10 10 10 11 11 12 10 9 10 10 10 11 11 12 13 13 13 14 14
47 43 41 39 38 37 35 32 32 32 31 30 28 25 25 26 26 23 21 20 19 18 17 17 16 16 17 17 17 17 15 15 15 16 17 18 19 20 20 20 20 20 22
45 43 41 40 40 38 36 36 35 33 32 32 30 29 29 30 28 26 25 24 23 22 22 23 23 23 22 22 22 22 23 23 23 23 24 25 26 26 26 26 27 29 31
44 42 40 40 39 39 39 37 36 35 34 33 32 32 32 30 30 28 28 27 26 26 26 26 26 26 26 26 27 28 29 30 30 31 32 32 33 33 33 33 35 37 37
Wind_Direction_500mb
328 326 322 315 306 307 306 303 297 294 282 273 286 260 199 228 226 221 221 228 228 233 241 238 240 241 245 240 242 240 239 235 232 235 237 232 228 222 228 240 238 247 242
333 332 328 322 318 315 314 307 299 294 286 277 270 257 241 220 223 221 227 230 233 232 232 238 242 244 232 244 239 240 239 251 240 233 231 223 221 227 234 231 235 231 237
343 338 335 330 327 323 319 315 310 295 291 287 260 250 244 241 230 224 230 232 234 235 227 229 231 236 244 250 243 240 242 246 247 237 231 227 226 217 217 219 220 222 231
349 346 344 338 329 325 324 319 316 312 306 310 285 279 264 251 232 237 228 231 233 234 235 228 224 230 236 240 247 247 242 247 246 235 234 229 222 208 206 212 207 208 208
353 352 352 349 340 335 332 334 328 335 342 338 329 310 307 300 280 245 226 243 260 248 236 240 229 226 232 238 243 244 243 236 244 242 237 219 212 205 203 202 203 195 183
357 0 1 359 0 359 1 1 2 4 1 358 351 357 10 347 315 253 262 278 277 255 243 246 249 234 233 235 235 239 243 239 235 239 245 225 215 208 202 198 195 176 161
4 7 12 11 13 18 24 29 31 27 19 22 17 16 3 351 338 330 278 254 238 203 219 238 254 255 240 235 238 237 238 249 244 241 247 227 222 214 204 193 185 182 176
15 17 18 20 26 33 40 48 59 59 62 63 62 59 57 58 45 59 60 137 128 107 86 60 75 323 278 244 232 236 233 238 242 240 231 221 210 202 196 185 181 176 170
25 26 24 27 34 42 54 62 74 82 84 80 75 74 74 77 95 117 122 118 110 101 94 88 92 95 94 109 152 159 153 161 162 177 186 174 178 162 173 177 177 175 164
34 32 32 38 43 50 58 68 78 81 82 84 82 79 83 93 108 112 109 105 102 101 99 94 85 83 91 91 88 97 103 99 108 123 125 140 141 142 157 163 163 171 165
31 34 37 47 52 56 65 72 76 82 86 84 81 80 79 80 92 102 108 108 104 103 99 97 98 101 104 97 93 99 95 102 110 114 126 132 131 142 148 146 155 164 165
13 14 29 37 46 57 63 71 76 80 83 81 84 86 88 93 92 93 98 97 104 103 100 102 102 97 94 99 105 105 108 122 125 134 138 130 130 140 149 152 174 181 170
10 9 24 36 41 50 65 74 77 78 83 84 82 84 83 80 86 92 92 91 90 91 95 97 99 97 97 101 98 101 102 101 109 124 121 122 131 137 139 166 171 175 179
16 54 61 62 59 72 76 80 84 83 78 79 79 77 77 82 83 83 83 83 87 87 86 91 91 89 91 88 97 101 106 112 118 117 121 128 136 141 152 157 161 157 159
113 95 77 70 63 58 76 95 91 95 92 85 77 72 74 75 71 78 86 90 91 88 86 90 88 87 90 92 95 96 96 98 98 101 108 119 131 139 147 152 161 175 179
155 135 119 102 90 82 71 80 87 85 85 80 81 82 83 89 89 87 83 84 86 84 79 75 77 83 89 92 92 94 98 101 109 117 127 131 134 136 135 137 130 111 110
172 162 152 129 117 103 93 86 76 81 78 80 83 77 74 72 72 78 82 81 75 76 74 76 76 79 78 77 78 87 94 94 94 101 101 104 105 110 111 114 110 113 126
205 191 171 160 156 140 122 106 88 74 68 69 73 75 79 83 85 84 81 73 67 67 59 64 63 64 69 72 78 79 77 79 81 77 77 80 80 79 86 98 108 112 117
196 193 191 188 193 197 197 189 133 83 52 33 29 27 18 17 24 30 36 36 42 40 42 43 48 52 54 59 63 69 78 94 105 113 121 124 129 129 131 130 126 124 120
202 203 204 202 203 210 210 211 208 209 226 247 262 269 277 279 279 275 288 314 359 13 13 14 17 20 39 73 92 109 130 136 136 130 114 101 86 76 62 61 62 50 54
213 216 222 225 227 229 227 226 229 233 238 241 247 248 251 254 253 248 248 251 260 269 282 309 324 321 314 293 253 199 178 170 171 174 169 162 161 177 213 241 257 269 278
219 222 229 234 237 240 241 240 243 244 245 245 244 245 251 250 249 247 243 249 260 262 261 262 263 257 249 242 235 225 214 203 203 210 214 216 225 237 246 251 256 259 262
223 224 227 231 235 238 238 242 246 248 249 251 252 255 254 258 261 259 256 257 262 267 270 270 268 264 260 255 248 241 230 224 228 234 240 249 259 268 274 275 273 272 271
228 232 235 237 240 243 246 248 249 251 253 256 257 259 263 264 264 265 265 265 266 270 274 276 273 267 266 262 257 254 252 251 251 254 260 264 267 267 267 268 269 268 268
229 233 237 241 244 248 249 249 252 255 257 258 259 259 260 261 262 262 261 261 262 265 268 268 263 257 255 252 251 253 256 258 261 264 266 267 267 267 268 268 268 267 267
232 236 240 243 244 246 249 251 253 253 253 254 254 255 257 259 258 258 259 261 263 265 265 262 258 259 256 252 252 254 257 260 262 263 264 264 265 265 266 267 266 267 267
Wind_Speed_850mb
54 50 43 37 34 32 36 36 39 39 38 41 33 16 19 44 53 50 42 43 49 46 50 55 52 47 40 55 72 71 73 72 65 58 54 57 56 53 47 51 53 54 52
51 47 40 32 30 31 30 32 33 35 33 31 36 19 21 21 35 38 36 37 37 48 49 58 62 55 50 54 73 65 64 68 70 64 58 56 56 52 52 47 47 48 43
47 44 37 29 26 28 25 24 23 23 22 15 14 21 20 20 25 26 24 28 28 30 42 48 57 60 61 50 51 61 67 87 74 79 70 67 64 57 54 51 47 44 38
44 38 35 30 25 25 22 16 14 11 12 13 18 15 15 12 6 16 18 16 20 25 28 43 49 56 61 50 46 55 60 71 75 75 81 71 68 66 58 55 50 41 39
42 37 33 27 23 23 19 13 11 8 10 16 15 16 14 9 8 15 12 12 15 21 21 27 42 45 45 53 58 58 62 68 75 86 88 76 76 73 68 61 57 52 47
39 35 33 28 21 17 16 15 10 9 10 13 13 12 10 10 8 5 9 13 16 16 19 20 29 44 45 51 53 58 62 75 85 87 99 76 75 75 74 69 68 66 56
37 33 30 28 24 19 15 14 14 14 14 12 12 11 9 7 10 11 12 9 10 9 8 15 16 20 27 41 55 53 68 70 76 85 86 83 79 82 81 74 72 67 52
37 35 31 28 24 20 18 17 18 18 19 21 22 23 20 21 18 10 6 9 17 22 15 8 2 1 11 21 34 40 50 60 64 75 78 74 78 78 75 66 65 54 36
38 38 34 29 25 21 22 23 25 28 32 37 36 36 33 28 21 27 36 47 54 55 48 40 36 35 30 20 21 32 40 41 39 32 32 40 39 51 45 58 48 38 36
33 36 33 31 29 28 26 26 27 31 35 36 42 43 40 40 43 53 59 61 64 64 62 63 56 47 42 41 42 44 60 57 45 45 50 50 51 50 46 36 34 33 35
22 25 27 30 30 29 27 27 30 32 36 42 45 46 47 44 41 40 46 56 59 60 59 52 48 41 40 39 39 35 51 44 40 41 45 43 49 42 40 38 32 26 27
13 16 17 19 21 23 24 26 28 30 34 37 39 42 40 42 39 36 35 37 42 46 48 44 42 39 39 39 41 46 46 40 38 37 37 37 33 30 28 28 27 23 19
7 9 10 12 13 13 13 16 17 18 19 26 30 34 34 33 34 33 33 32 33 37 37 37 34 31 27 31 37 39 34 32 27 25 29 30 26 23 20 21 19 15 16
4 7 8 10 11 12 12 15 17 21 21 24 27 30 30 32 35 36 35 34 34 33 34 35 32 29 26 28 28 27 26 25 22 22 23 24 22 22 19 15 15 15 14
6 9 11 15 14 12 11 15 16 18 18 19 24 22 20 25 27 28 29 30 32 35 30 30 28 26 27 27 25 25 25 23 19 20 18 18 16 14 12 11 10 9 10
8 9 12 14 15 16 15 15 15 18 17 19 22 21 23 23 22 22 23 24 26 31 24 27 28 29 29 28 25 24 23 22 20 19 17 16 14 12 9 8 6 6 6
13 13 10 9 10 14 15 17 19 20 20 19 19 19 20 21 20 21 24 23 24 27 23 26 24 23 22 21 22 22 20 22 22 20 19 18 18 17 14 14 13 11 11
16 13 13 13 10 8 7 9 11 12 14 15 15 16 15 14 14 15 15 16 17 17 18 19 19 19 19 18 18 16 15 17 15 14 13 13 13 11 11 11 12 10 10
27 24 21 16 12 9 8 5 3 4 5 8 10 11 11 13 14 15 14 12 13 14 15 14 14 13 13 12 12 11 11 11 11 12 12 13 14 13 11 11 9 8 6
31 28 24 22 21 21 19 14 11 9 7 7 7 7 6 5 5 4 4 3 3 3 4 4 4 3 2 2 3 3 3 3 3 3 3 4 5 5 5 4 4 4 3
31 28 26 25 23 21 21 19 18 15 15 15 15 16 15 15 13 12 9 7 6 5 4 4 4 4 3 2 1 2 4 6 6 6 5 4 4 3 3 3 4 5 7
37 34 32 28 28 28 26 26 25 23 24 21 20 21 19 17 16 15 12 11 9 8 8 7 6 6 6 6 7 7 8 7 7 7 6 6 6 7 8 8 7 7 8
44 41 39 37 35 34 34 31 28 29 28 27 25 22 21 21 20 18 16 14 13 13 12 11 10 10 10 11 11 12 10 9 10 10 10 11 11 12 13 13 13 14 14
47 43 41 39 38 37 35 32 32 32 31 30 28 25 25 26 26 23 21 20 19 18 17 17 16 16 17 17 17 17 15 15 15 16 17 18 19 20 20 20 20 20 22
45 43 41 40 40 38 36 36 35 33 32 32 30 29 29 30 28 26 25 24 23 22 22 23 23 23 22 22 22 22 23 23 23 23 24 25 26 26 26 26 27 29 31
44 42 40 40 39 39 39 37 36 35 34 33 32 32 32 30 30 28 28 27 26 26 26 26 26 26 26 26 27 28 29 30 30 31 32 32 33 33 33 33 35 37 37
Wind_Direction_850mb
328 326 322 315 306 307 306 303 297 294 282 273 286 260 199 228 226 221 221 228 228 233 241 238 240 241 245 240 242 240 239 235 232 235 237 232 228 222 228 240 238 247 242
333 332 328 322 318 315 314 307 299 294 286 277 270 257 241 220 223 221 227 230 233 232 232 238 242 244 232 244 239 240 239 251 240 233 231 223 221 227 234 231 235 231 237
343 338 335 330 327 323 319 315 310 295 291 287 260 250 244 241 230 224 230 232 234 235 227 229 231 236 244 250 243 240 242 246 247 237 231 227 226 217 217 219 220 222 231
349 346 344 338 329 325 324 319 316 312 306 310 285 279 264 251 232 237 228 231 233 234 235 228 224 230 236 240 247 247 242 247 246 235 234 229 222 208 206 212 207 208 208
353 352 352 349 340 335 332 334 328 335 342 338 329 310 307 300 280 245 226 243 260 248 236 240 229 226 232 238 243 244 243 236 244 242 237 219 212 205 203 202 203 195 183
357 0 1 359 0 359 1 1 2 4 1 358 351 357 10 347 315 253 262 278 277 255 243 246 249 234 233 235 235 239 243 239 235 239 245 225 215 208 202 198 195 176 161
4 7 12 11 13 18 24 29 31 27 19 22 17 16 3 351 338 330 278 254 238 203 219 238 254 255 240 235 238 237 238 249 244 241 247 227 222 214 204 193 185 182 176
15 17 18 20 26 33 40 48 59 59 62 63 62 59 57 58 45 59 60 137 128 107 86 60 75 323 278 244 232 236 233 238 242 240 231 221 210 202 196 185 181 176 170
25 26 24 27 34 42 54 62 74 82 84 80 75 74 74 77 95 117 122 118 110 101 94 88 92 95 94 109 152 159 153 161 162 177 186 174 178 162 173 177 177 175 164
34 32 32 38 43 50 58 68 78 81 82 84 82 79 83 93 108 112 109 105 102 101 99 94 85 83 91 91 88 97 103 99 108 123 125 140 141 142 157 163 163 171 165
31 34 37 47 52 56 65 72 76 82 86 84 81 80 79 80 92 102 108 108 104 103 99 97 98 101 104 97 93 99 95 102 110 114 126 132 131 142 148 146 155 164 165
13 14 29 37 46 57 63 71 76 80 83 81 84 86 88 93 92 93 98 97 104 103 100 102 102 97 94 99 105 105 108 122 125 134 138 130 130 140 149 152 174 181 170
10 9 24 36 41 50 65 74 77 78 83 84 82 84 83 80 86 92 92 91 90 91 95 97 99 97 97 101 98 101 102 101 109 124 121 122 131 137 139 166 171 175 179
16 54 61 62 59 72 76 80 84 83 78 79 79 77 77 82 83 83 83 83 87 87 86 91 91 89 91 88 97 101 106 112 118 117 121 128 136 141 152 157 161 157 159
113 95 77 70 63 58 76 95 91 95 92 85 77 72 74 75 71 78 86 90 91 88 86 90 88 87 90 92 95 96 96 98 98 101 108 119 131 139 147 152 161 175 179
155 135 119 102 90 82 71 80 87 85 85 80 81 82 83 89 89 87 83 84 86 84 79 75 77 83 89 92 92 94 98 101 109 117 127 131 134 136 135 137 130 111 110
172 162 152 129 117 103 93 86 76 81 78 80 83 77 74 72 72 78 82 81 75 76 74 76 76 79 78 77 78 87 94 94 94 101 101 104 105 110 111 114 110 113 126
205 191 171 160 156 140 122 106 88 74 68 69 73 75 79 83 85 84 81 73 67 67 59 64 63 64 69 72 78 79 77 79 81 77 77 80 80 79 86 98 108 112 117
196 193 191 188 193 197 197 189 133 83 52 33 29 27 18 17 24 30 36 36 42 40 42 43 48 52 54 59 63 69 78 94 105 113 121 124 129 129 131 130 126 124 120
202 203 204 202 203 210 210 211 208 209 226 247 262 269 277 279 279 275 288 314 359 13 13 14 17 20 39 73 92 109 130 136 136 130 114 101 86 76 62 61 62 50 54
213 216 222 225 227 229 227 226 229 233 238 241 247 248 251 254 253 248 248 251 260 269 282 309 324 321 314 293 253 199 178 170 171 174 169 162 161 177 213 241 257 269 278
219 222 229 234 237 240 241 240 243 244 245 245 244 245 251 250 249 247 243 249 260 262 261 262 263 257 249 242 235 225 214 203 203 210 214 216 225 237 246 251 256 259 262
223 224 227 231 235 238 238 242 246 248 249 251 252 255 254 258 261 259 256 257 262 267 270 270 268 264 260 255 248 241 230 224 228 234 240 249 259 268 274 275 273 272 271
228 232 235 237 240 243 246 248 249 251 253 256 257 259 263 264 264 265 265 265 266 270 274 276 273 267 266 262 257 254 252 251 251 254 260 264 267 267 267 268 269 268 268
229 233 237 241 244 248 249 249 252 255 257 258 259 259 260 261 262 262 261 261 262 265 268 268 263 257 255 252 251 253 256 258 261 264 266 267 267 267 268 268 268 267 267
232 236 240 243 244 246 249 251 253 253 253 254 254 255 257 259 258 258 259 261 263 265 265 262 258 259 256 252 252 254 257 260 262 263 264 264 265 265 266 267 266 267 267